Weather Roundup
Issued by NWS Springfield, MO

Home | Current Version | Previous Version | Text Only | Print | Product List | Glossary On
Versions: 1 2 3 4 5 6 7 8 9 10 11 12 13 14 15 16 17 18 19 20 21 22 23 24 25 26 27 28 29 30 31 32 33 34 35 36 37 38 39 40 41 42 43 44 45 46 47 48 49 50
000
NZUS99 KSGF 232007
HRRSGF

HOURLY WEATHER
NATIONAL WEATHER SERVICE SPRINGFIELD MO
300 PM CDT THU OCT 23 2014

......SGF CWA......

CITY           SKY/WX    TMP DP  RH WIND       PRES   REMARKS
SPRINGFIELD    LGT RAIN  61  56  83 S6        30.12F
JOPLIN         PTSUNNY   62  57  83 S10       30.11F
WEST PLAINS    CLOUDY    57  45  64 S6        30.16F
ROLLA          CLOUDY    60  46  59 SW8       30.11F
OSAGE BEACH    CLOUDY    63  50  63 SW5       30.11F
BRANSON        CLOUDY    66  54  63 W3        30.15F

......SURROUNDING SGF CWA......

CITY           SKY/WX    TMP DP  RH WIND       PRES   REMARKS
CHANUTE        NOT AVBL
PARSONS        CLOUDY    64  58  80 S12       30.10F
COFFEYVILLE    LGT RAIN  64  58  80 S12       30.09F
GROVE OK       CLOUDY    59  59 100 S8        30.13F
ROGERS AR      CLOUDY    57  52  83 S7        30.15F
SILOAM SPRINGS CLOUDY    57  50  77 SE3       30.15F
HARRISON AR    PTSUNNY   62  52  69 E5        30.14F
NEAR YELLVILLE CLOUDY    61  45  55 CALM      30.15F

......KANSAS AND MISSOURI......

CITY           SKY/WX    TMP DP  RH WIND       PRES   REMARKS
KANSAS CTY INT CLOUDY    63  61  93 SW10      30.06F
DOWNTOWN KC    CLOUDY    65  60  84 SW7       30.06S
COLUMBIA       CLOUDY    61  51  70 S9        30.09F
SEDALIA        PTSUNNY   67  56  67 SW13      30.09F
ST JOSEPH      PTSUNNY   72  60  66 SW8       30.04F
ST LOUIS       PTSUNNY   64  45  49 SE6       30.12F
SPIRIT OF STL  CLOUDY    64  45  49 S8        30.10F
KIRKSVILLE     CLOUDY    65  57  75 SW8       30.05F
TOPEKA         MOSUNNY   70  62  76 SE3       30.05F
OLATHE         CLOUDY    64  60  87 SW8       30.06F

......TENNESSEE......

CITY           SKY/WX    TMP DP  RH WIND       PRES   REMARKS
MEMPHIS        CLOUDY    64  43  46 N7        30.13F
NASHVILLE      PTSUNNY   64  40  41 N6        30.12F

......ARKANSAS.......

CITY           SKY/WX    TMP DP  RH WIND       PRES   REMARKS
FAYETTEVILLE   LGT RAIN  60  54  80 CALM      30.15F
FT SMITH       CLOUDY    67  49  52 NE3       30.13F
LITTLE ROCK    CLOUDY    66  45  46 CALM      30.16F

......OKLAHOMA.......

CITY           SKY/WX    TMP DP  RH WIND       PRES   REMARKS
TULSA          PTSUNNY   66  59  78 S8        30.09F
PONCA CITY     SUNNY     75  60  59 S5        30.05F
MCALESTER      CLOUDY    64  58  80 SE5       30.12F
OKLAHOMA CITY  MOSUNNY   79  58  48 SW8       30.06F

......IOWA............

CITY           SKY/WX    TMP DP  RH WIND       PRES   REMARKS
DES MOINES     MOSUNNY   70  57  63 SW5       30.01F
QUAD CITIES    PTSUNNY   61  46  57 S9        30.04F

......ILLINOIS........

CITY           SKY/WX    TMP DP  RH WIND       PRES   REMARKS
QUINCY         LGT RAIN  56  50  80 S8        30.08F
CHICAGO        CLOUDY    58  41  53 SW12G18   30.11S




USA.gov is the U.S. government's official web portal to all federal, state and local government web resources and services.